Time,TemperatureF,DewpointF,PressureIn,WindDirection,WindDirectionDegrees,WindSpeedMPH,WindSpeedGustMPH,Humidity,HourlyPrecipIn,Conditions,Clouds,dailyrainin,SoftwareType,DateUTC
2013-04-01 14:58:00,63.5,43.4,30.05,North,0,3.4,3.4,48,0.00,,,0.00,WUHU216HW,2013-04-01 21:58:00,
2013-04-01 15:03:00,63.7,43.6,30.05,NNW,338,3.1,3.4,48,0.00,,,0.00,WUHU216HW,2013-04-01 22:03:00,
2013-04-01 15:08:00,64.1,44.5,30.05,NNE,23,4.0,4.3,49,0.00,,,0.00,WUHU216HW,2013-04-01 22:08:00,
2013-04-01 15:13:00,64.4,43.7,30.05,NNW,338,3.6,4.3,47,0.00,,,0.00,WUHU216HW,2013-04-01 22:13:00,
2013-04-01 15:18:00,64.4,43.7,30.05,North,0,1.8,4.0,47,0.00,,,0.00,WUHU216HW,2013-04-01 22:18:00,
2013-04-01 15:24:00,64.4,43.0,30.05,North,0,4.5,4.5,46,0.00,,,0.00,WUHU216HW,2013-04-01 22:24:00,
2013-04-01 15:29:00,64.1,43.3,30.05,NNW,338,5.4,5.4,47,0.00,,,0.00,WUHU216HW,2013-04-01 22:29:00,
2013-04-01 15:34:00,64.1,43.3,30.04,WNW,293,2.0,5.4,47,0.00,,,0.00,WUHU216HW,2013-04-01 22:34:00,
2013-04-01 15:39:00,64.1,43.9,30.05,NNW,338,4.7,5.4,48,0.00,,,0.00,WUHU216HW,2013-04-01 22:39:00,
2013-04-01 15:44:00,63.9,43.1,30.05,West,270,4.9,4.9,47,0.00,,,0.00,WUHU216HW,2013-04-01 22:44:00,
2013-04-01 15:48:00,63.7,43.0,30.05,North,0,2.2,4.9,47,0.00,,,0.00,WUHU216HW,2013-04-01 22:48:00,
2013-04-01 15:53:00,63.5,43.4,30.05,WSW,248,3.8,4.9,48,0.00,,,0.00,WUHU216HW,2013-04-01 22:53:00,
2013-04-01 15:58:00,62.5,42.4,30.04,WNW,293,6.3,6.9,48,0.00,,,0.00,WUHU216HW,2013-04-01 22:58:00,
2013-04-01 16:03:00,62.1,42.7,30.04,SSW,203,2.9,6.9,49,0.00,,,0.00,WUHU216HW,2013-04-01 23:03:00,
2013-04-01 16:08:00,62.1,42.7,30.04,WSW,248,7.2,7.2,49,0.00,,,0.00,WUHU216HW,2013-04-01 23:08:00,
2013-04-01 16:13:00,62.3,42.3,30.04,West,270,3.1,7.2,48,0.00,,,0.00,WUHU216HW,2013-04-01 23:13:00,
2013-04-01 16:18:00,62.3,42.8,30.05,South,180,6.9,6.9,49,0.00,,,0.00,WUHU216HW,2013-04-01 23:18:00,
2013-04-01 16:24:00,63.5,42.9,30.04,SW,225,6.3,7.6,47,0.00,,,0.00,WUHU216HW,2013-04-01 23:24:00,
2013-04-01 16:29:00,64.3,43.5,30.05,SW,225,2.9,7.6,47,0.00,,,0.00,WUHU216HW,2013-04-01 23:29:00,
2013-04-01 16:33:00,65.0,43.0,30.05,SW,225,7.6,7.6,45,0.00,,,0.00,WUHU216HW,2013-04-01 23:33:00,
2013-04-01 16:38:00,63.5,43.4,30.05,SW,225,4.5,7.6,48,0.00,,,0.00,WUHU216HW,2013-04-01 23:38:00,
2013-04-01 16:43:00,63.2,42.5,30.05,SW,225,6.3,6.3,47,0.00,,,0.00,WUHU216HW,2013-04-01 23:43:00,
2013-04-01 16:48:00,63.0,42.9,30.05,NW,315,6.3,6.3,48,0.00,,,0.00,WUHU216HW,2013-04-01 23:48:00,
2013-04-01 16:53:00,63.2,43.1,30.05,West,270,2.5,6.3,48,0.00,,,0.00,WUHU216HW,2013-04-01 23:53:00,
2013-04-01 16:58:00,63.2,43.1,30.05,SW,225,8.3,8.3,48,0.00,,,0.00,WUHU216HW,2013-04-01 23:58:00,
2013-04-01 17:03:00,63.7,43.6,30.05,WSW,248,4.5,8.3,48,0.00,,,0.00,WUHU216HW,2013-04-02 00:03:00,
2013-04-01 17:09:00,63.9,43.1,30.05,WNW,293,6.0,8.7,47,0.00,,,0.00,WUHU216HW,2013-04-02 00:09:00,
2013-04-01 17:13:00,63.2,43.1,30.05,WSW,248,5.6,8.7,48,0.00,,,0.00,WUHU216HW,2013-04-02 00:13:00,
2013-04-01 17:18:00,63.2,43.7,30.06,West,270,6.7,8.7,49,0.00,,,0.00,WUHU216HW,2013-04-02 00:18:00,
2013-04-01 17:23:00,63.4,43.2,30.06,WNW,293,6.3,6.7,48,0.00,,,0.00,WUHU216HW,2013-04-02 00:23:00,
2013-04-01 17:28:00,62.3,42.8,30.06,West,270,6.3,9.8,49,0.00,,,0.00,WUHU216HW,2013-04-02 00:28:00,
2013-04-01 17:33:00,62.1,43.3,30.06,WSW,248,8.9,9.8,50,0.00,,,0.00,WUHU216HW,2013-04-02 00:33:00,
2013-04-01 17:38:00,62.5,43.0,30.06,WSW,248,9.6,9.6,49,0.00,,,0.00,WUHU216HW,2013-04-02 00:38:00,
2013-04-01 17:43:00,62.3,42.8,30.06,WNW,293,11.6,11.6,49,0.00,,,0.00,WUHU216HW,2013-04-02 00:43:00,
2013-04-01 17:48:00,61.9,43.1,30.06,WNW,293,8.3,11.6,50,0.00,,,0.00,WUHU216HW,2013-04-02 00:48:00,
2013-04-01 17:53:00,62.1,43.3,30.06,West,270,5.1,10.3,50,0.00,,,0.00,WUHU216HW,2013-04-02 00:53:00,
2013-04-01 17:58:00,61.0,42.8,30.06,West,270,4.9,11.2,51,0.00,,,0.00,WUHU216HW,2013-04-02 00:58:00,
2013-04-01 18:03:00,61.2,42.9,30.07,WSW,248,6.7,11.2,51,0.00,,,0.00,WUHU216HW,2013-04-02 01:03:00,
2013-04-01 18:09:00,61.2,42.9,30.06,WSW,248,10.7,10.7,51,0.00,,,0.00,WUHU216HW,2013-04-02 01:09:00,
2013-04-01 18:14:00,60.5,42.8,30.07,SW,225,8.7,10.7,52,0.00,,,0.00,WUHU216HW,2013-04-02 01:14:00,
2013-04-01 18:19:00,60.1,41.9,30.07,WSW,248,8.3,8.7,51,0.00,,,0.00,WUHU216HW,2013-04-02 01:19:00,
2013-04-01 18:24:00,60.1,42.4,30.07,SW,225,5.1,8.7,52,0.00,,,0.00,WUHU216HW,2013-04-02 01:24:00,
2013-04-01 18:29:00,59.4,42.2,30.07,SW,225,6.5,11.2,53,0.00,,,0.00,WUHU216HW,2013-04-02 01:29:00,
2013-04-01 18:34:00,58.9,42.2,30.08,West,270,5.1,11.2,54,0.00,,,0.00,WUHU216HW,2013-04-02 01:34:00,
2013-04-01 18:39:00,58.7,42.5,30.08,West,270,5.1,6.5,55,0.00,,,0.00,WUHU216HW,2013-04-02 01:39:00,
2013-04-01 18:44:00,58.1,42.5,30.08,WNW,293,8.1,8.9,56,0.00,,,0.00,WUHU216HW,2013-04-02 01:44:00,
2013-04-01 18:49:00,58.0,42.3,30.08,SSW,203,3.4,8.9,56,0.00,,,0.00,WUHU216HW,2013-04-02 01:49:00,
2013-04-01 18:54:00,57.6,41.6,30.08,WNW,293,7.8,8.1,55,0.00,,,0.00,WUHU216HW,2013-04-02 01:54:00,
2013-04-01 18:59:00,57.2,42.1,30.08,WSW,248,4.5,7.8,57,0.00,,,0.00,WUHU216HW,2013-04-02 01:59:00,
2013-04-01 19:04:00,56.9,41.8,30.09,West,270,4.0,4.9,57,0.00,,,0.00,WUHU216HW,2013-04-02 02:04:00,
2013-04-01 19:09:00,56.7,41.6,30.09,West,270,6.5,6.5,57,0.00,,,0.00,WUHU216HW,2013-04-02 02:09:00,
2013-04-01 19:14:00,56.0,41.9,30.09,WSW,248,10.5,11.0,59,0.00,,,0.00,WUHU216HW,2013-04-02 02:14:00,
2013-04-01 19:19:00,55.3,41.6,30.09,WSW,248,4.0,11.0,60,0.00,,,0.00,WUHU216HW,2013-04-02 02:19:00,
2013-04-01 19:24:00,54.7,42.0,30.09,WSW,248,7.8,10.5,62,0.00,,,0.00,WUHU216HW,2013-04-02 02:24:00,
2013-04-01 19:29:00,54.4,42.0,30.09,West,270,5.4,8.1,63,0.00,,,0.00,WUHU216HW,2013-04-02 02:29:00,
2013-04-01 19:34:00,54.0,42.0,30.09,WSW,248,3.4,8.1,64,0.00,,,0.00,WUHU216HW,2013-04-02 02:34:00,
2013-04-01 19:39:00,53.6,41.8,30.10,WNW,293,5.4,5.4,64,0.00,,,0.00,WUHU216HW,2013-04-02 02:39:00,
2013-04-01 19:44:00,53.5,41.9,30.09,WSW,248,1.1,5.4,65,0.00,,,0.00,WUHU216HW,2013-04-02 02:44:00,
2013-04-01 19:49:00,52.9,41.4,30.10,SW,225,1.1,5.4,65,0.00,,,0.00,WUHU216HW,2013-04-02 02:49:00,
2013-04-01 19:54:00,52.7,42.1,30.10,WSW,248,1.8,1.8,67,0.00,,,0.00,WUHU216HW,2013-04-02 02:54:00,
2013-04-01 19:59:00,52.2,41.9,30.10,SW,225,1.6,1.8,68,0.00,,,0.00,WUHU216HW,2013-04-02 02:59:00,
2013-04-01 20:04:00,52.0,42.2,30.10,SW,225,0.0,2.0,69,0.00,,,0.00,WUHU216HW,2013-04-02 03:04:00,
2013-04-01 20:09:00,51.8,41.2,30.10,SW,225,1.1,2.0,67,0.00,,,0.00,WUHU216HW,2013-04-02 03:09:00,
2013-04-01 20:14:00,51.5,41.7,30.11,SW,225,2.2,3.6,69,0.00,,,0.00,WUHU216HW,2013-04-02 03:14:00,
2013-04-01 20:19:00,51.3,41.5,30.11,SW,225,0.7,3.6,69,0.00,,,0.00,WUHU216HW,2013-04-02 03:19:00,
2013-04-01 20:24:00,50.9,41.6,30.11,SSW,203,0.4,2.5,70,0.00,,,0.00,WUHU216HW,2013-04-02 03:24:00,
2013-04-01 20:29:00,50.8,41.4,30.11,SSW,203,2.7,2.7,70,0.00,,,0.00,WUHU216HW,2013-04-02 03:29:00,
2013-04-01 20:34:00,50.6,41.6,30.11,South,180,1.6,2.7,71,0.00,,,0.00,WUHU216HW,2013-04-02 03:34:00,
2013-04-01 20:39:00,50.2,41.6,30.11,SSW,203,1.1,2.7,72,0.00,,,0.00,WUHU216HW,2013-04-02 03:39:00,
2013-04-01 20:44:00,50.0,41.4,30.12,SW,225,0.4,2.2,72,0.00,,,0.00,WUHU216HW,2013-04-02 03:44:00,
2013-04-01 20:49:00,49.9,41.2,30.12,SW,225,1.6,1.6,72,0.00,,,0.00,WUHU216HW,2013-04-02 03:49:00,
2013-04-01 20:54:00,49.5,41.1,30.12,SSW,203,2.7,2.7,73,0.00,,,0.00,WUHU216HW,2013-04-02 03:54:00,
2013-04-01 20:59:00,49.5,41.1,30.12,South,180,1.8,2.7,73,0.00,,,0.00,WUHU216HW,2013-04-02 03:59:00,
2013-04-01 21:04:00,49.5,41.1,30.12,SSE,158,0.4,2.7,73,0.00,,,0.00,WUHU216HW,2013-04-02 04:04:00,
2013-04-01 21:09:00,49.3,41.0,30.12,SSW,203,1.1,2.0,73,0.00,,,0.00,WUHU216HW,2013-04-02 04:09:00,
2013-04-01 21:14:00,49.3,40.7,30.12,SSW,203,1.1,2.0,72,0.00,,,0.00,WUHU216HW,2013-04-02 04:14:00,
2013-04-01 21:24:00,49.3,40.7,30.13,SSW,203,1.1,1.1,72,0.00,,,0.00,WUHU216HW,2013-04-02 04:24:00,
2013-04-01 21:33:00,47.5,41.0,30.13,NE,45,4.3,4.3,78,0.00,,,0.00,WUHU216HW,2013-04-02 04:33:00,
2013-04-01 21:38:00,47.5,41.0,30.13,ENE,68,3.4,4.3,78,0.00,,,0.00,WUHU216HW,2013-04-02 04:38:00,
2013-04-01 21:43:00,47.3,40.8,30.13,East,90,3.4,4.0,78,0.00,,,0.00,WUHU216HW,2013-04-02 04:43:00,
2013-04-01 21:48:00,47.2,40.7,30.13,East,90,3.1,3.8,78,0.00,,,0.00,WUHU216HW,2013-04-02 04:48:00,
2013-04-01 21:53:00,47.0,40.5,30.13,ENE,68,4.3,4.3,78,0.00,,,0.00,WUHU216HW,2013-04-02 04:53:00,
2013-04-01 21:58:00,46.6,40.1,30.13,ENE,68,3.1,4.7,78,0.00,,,0.00,WUHU216HW,2013-04-02 04:58:00,
2013-04-01 22:03:00,46.6,40.5,30.13,East,90,3.4,4.7,79,0.00,,,0.00,WUHU216HW,2013-04-02 05:03:00,
2013-04-01 22:08:00,46.6,40.5,30.13,East,90,2.7,3.8,79,0.00,,,0.00,WUHU216HW,2013-04-02 05:08:00,
2013-04-01 22:13:00,46.6,40.9,30.13,East,90,2.0,3.4,80,0.00,,,0.00,WUHU216HW,2013-04-02 05:13:00,
2013-04-01 22:18:00,46.4,40.7,30.13,East,90,2.5,2.7,80,0.00,,,0.00,WUHU216HW,2013-04-02 05:18:00,
2013-04-01 22:23:00,46.1,40.6,30.13,ENE,68,2.7,2.7,81,0.00,,,0.00,WUHU216HW,2013-04-02 05:23:00,
2013-04-01 22:28:00,46.3,40.8,30.13,East,90,3.1,3.6,81,0.00,,,0.00,WUHU216HW,2013-04-02 05:28:00,
2013-04-01 22:33:00,46.3,40.8,30.13,East,90,3.4,3.6,81,0.00,,,0.00,WUHU216HW,2013-04-02 05:33:00,
2013-04-01 22:38:00,46.4,41.0,30.13,ESE,113,3.1,3.4,81,0.00,,,0.00,WUHU216HW,2013-04-02 05:38:00,
2013-04-01 22:43:00,46.4,41.0,30.13,ENE,68,2.5,3.1,81,0.00,,,0.00,WUHU216HW,2013-04-02 05:43:00,
2013-04-01 22:48:00,46.1,41.0,30.13,East,90,1.8,3.1,82,0.00,,,0.00,WUHU216HW,2013-04-02 05:48:00,
2013-04-01 22:53:00,46.1,40.6,30.13,East,90,0.9,2.5,81,0.00,,,0.00,WUHU216HW,2013-04-02 05:53:00,
2013-04-01 22:58:00,45.7,40.0,30.14,East,90,0.7,1.8,80,0.00,,,0.00,WUHU216HW,2013-04-02 05:58:00,
2013-04-01 23:03:00,45.2,39.1,30.14,East,90,0.2,0.9,79,0.00,,,0.00,WUHU216HW,2013-04-02 06:03:00,
2013-04-01 23:08:00,44.6,38.9,30.14,East,90,0.7,0.7,80,0.00,,,0.00,WUHU216HW,2013-04-02 06:08:00,
2013-04-01 23:13:00,44.1,38.6,30.13,East,90,0.9,0.9,81,0.00,,,0.00,WUHU216HW,2013-04-02 06:13:00,
2013-04-01 23:18:00,43.2,39.0,30.13,East,90,0.9,1.6,85,0.00,,,0.00,WUHU216HW,2013-04-02 06:18:00,
2013-04-01 23:23:00,43.0,38.8,30.13,East,90,0.7,1.6,85,0.00,,,0.00,WUHU216HW,2013-04-02 06:23:00,
2013-04-01 23:28:00,42.8,38.6,30.14,East,90,0.4,0.9,85,0.00,,,0.00,WUHU216HW,2013-04-02 06:28:00,
2013-04-01 23:33:00,42.5,38.3,30.14,East,90,0.7,0.7,85,0.00,,,0.00,WUHU216HW,2013-04-02 06:33:00,
2013-04-01 23:38:00,42.3,38.3,30.14,East,90,1.6,1.6,86,0.00,,,0.00,WUHU216HW,2013-04-02 06:38:00,
2013-04-01 23:43:00,42.3,38.7,30.14,ENE,68,2.7,2.7,87,0.00,,,0.00,WUHU216HW,2013-04-02 06:43:00,
2013-04-01 23:48:00,42.7,39.1,30.14,NE,45,1.6,2.7,87,0.00,,,0.00,WUHU216HW,2013-04-02 06:48:00,
2013-04-01 23:53:00,42.5,38.3,30.14,NE,45,0.4,2.7,85,0.00,,,0.00,WUHU216HW,2013-04-02 06:53:00,
2013-04-01 23:58:00,42.3,38.1,30.14,NE,45,0.0,0.9,85,0.00,,,0.00,WUHU216HW,2013-04-02 06:58:00,